,,Stat6,,Stat2,,Stat8,,Stat9,,Stat10,,Wind1,,Wind1,
time,status,PA1M_AVG,status,PR1M_SUM,status,RH1M_AVG,status,SR1M_AVG,status,TA1M_AVG,status,W1dAve1m,status,W1sAve1m,
2004-03-04, 00:00:00,VALID,919.31,VALID,0,VALID,99.9964,VALID,-0.0339617,VALID,18.9128,VALID,21,VALID,1.77832,
2004-03-04, 00:01:00,VALID,919.323,VALID,0,VALID,99.9621,VALID,0,VALID,18.8835,VALID,9,VALID,1.57244,
2004-03-04, 00:02:00,VALID,919.328,VALID,0,VALID,99.999,VALID,0,VALID,18.9034,VALID,30,VALID,1.01283,
2004-03-04, 00:03:00,VALID,919.335,VALID,0,VALID,100,VALID,0,VALID,18.8865,VALID,16,VALID,1.18177,
2004-03-04, 00:04:00,VALID,919.314,VALID,0,VALID,99.954,VALID,0.0169808,VALID,18.8771,VALID,21,VALID,1.6901,
2004-03-04, 00:05:00,VALID,919.314,VALID,0,VALID,99.9354,VALID,0.0169808,VALID,18.8446,VALID,16,VALID,1.47366,
2004-03-04, 00:06:00,VALID,919.321,VALID,0,VALID,99.9929,VALID,0,VALID,18.8513,VALID,17,VALID,1.38885,
2004-03-04, 00:07:00,VALID,919.281,VALID,0,VALID,99.9672,VALID,0.0169808,VALID,18.848,VALID,14,VALID,1.96317,
2004-03-04, 00:08:00,VALID,919.284,VALID,0,VALID,99.9519,VALID,0,VALID,18.8284,VALID,17,VALID,1.83416,
2004-03-04, 00:09:00,VALID,919.287,VALID,0,VALID,99.971,VALID,0,VALID,18.8356,VALID,20,VALID,1.74419,
2004-03-04, 00:10:00,VALID,919.296,VALID,0,VALID,99.987,VALID,0,VALID,18.8418,VALID,14,VALID,0.811435,
2004-03-04, 00:11:00,VALID,919.286,VALID,0,VALID,99.9608,VALID,-0.0169808,VALID,18.8187,VALID,10,VALID,1.23921,
2004-03-04, 00:12:00,VALID,919.289,VALID,0,VALID,99.8197,VALID,-0.101885,VALID,18.7854,VALID,353,VALID,1.12444,
2004-03-04, 00:13:00,VALID,919.299,VALID,0,VALID,99.8299,VALID,-0.118866,VALID,18.759,VALID,8,VALID,1.23819,
2004-03-04, 00:14:00,VALID,919.275,VALID,0,VALID,99.7943,VALID,-0.101885,VALID,18.7364,VALID,296,VALID,0.827939,
2004-03-04, 00:15:00,VALID,919.268,VALID,0,VALID,99.8438,VALID,-0.0849042,VALID,18.7399,VALID,16,VALID,1.40949,
2004-03-04, 00:16:00,VALID,919.265,VALID,0,VALID,99.924,VALID,-0.101885,VALID,18.7687,VALID,7,VALID,1.14329,
2004-03-04, 00:17:00,VALID,919.251,VALID,0,VALID,99.8642,VALID,-0.101885,VALID,18.7466,VALID,328,VALID,1.17932,
2004-03-04, 00:18:00,VALID,919.234,VALID,0,VALID,99.7332,VALID,-0.101885,VALID,18.7109,VALID,334,VALID,1.33984,
2004-03-04, 00:19:00,VALID,919.2,VALID,0,VALID,99.7752,VALID,-0.101885,VALID,18.7203,VALID,11,VALID,1.80178,
2004-03-04, 00:20:00,VALID,919.146,VALID,0,VALID,99.7955,VALID,-0.101885,VALID,18.7166,VALID,21,VALID,1.77381,
2004-03-04, 00:21:00,VALID,919.139,VALID,0,VALID,99.8413,VALID,-0.118866,VALID,18.727,VALID,14,VALID,1.49219,
2004-03-04, 00:22:00,VALID,919.143,VALID,0,VALID,99.8299,VALID,-0.118866,VALID,18.7399,VALID,317,VALID,1.07431,
2004-03-04, 00:23:00,VALID,919.115,VALID,0,VALID,99.7892,VALID,-0.101885,VALID,18.7203,VALID,350,VALID,0.840588,
2004-03-04, 00:24:00,VALID,919.099,VALID,0,VALID,99.7981,VALID,-0.0849042,VALID,18.7111,VALID,2,VALID,1.75799,
2004-03-04, 00:25:00,VALID,919.092,VALID,0,VALID,99.7892,VALID,-0.101885,VALID,18.6786,VALID,360,VALID,1.45469,
2004-03-04, 00:26:00,VALID,919.084,VALID,0,VALID,99.8108,VALID,-0.0849042,VALID,18.6394,VALID,349,VALID,1.23958,
2004-03-04, 00:27:00,VALID,919.082,VALID,0,VALID,99.8553,VALID,-0.101885,VALID,18.6108,VALID,357,VALID,1.02915,
2004-03-04, 00:28:00,VALID,919.07,VALID,0,VALID,99.9402,VALID,-0.0849042,VALID,18.6078,VALID,350,VALID,0.925195,
2004-03-04, 00:29:00,VALID,919.048,VALID,0,VALID,100,VALID,-0.101885,VALID,18.6135,VALID,10,VALID,1.18216,
2004-03-04, 00:30:00,VALID,919.047,VALID,0,VALID,100,VALID,-0.118866,VALID,18.6075,VALID,7,VALID,1.1557,
2004-03-04, 00:31:00,VALID,919.028,VALID,0,VALID,100,VALID,-0.0849042,VALID,18.6073,VALID,23,VALID,0.671689,
2004-03-04, 00:32:00,VALID,919.024,VALID,0,VALID,100,VALID,-0.0849042,VALID,18.6237,VALID,24,VALID,0.507635,
2004-03-04, 00:33:00,VALID,918.998,VALID,0,VALID,100,VALID,-0.0849042,VALID,18.6207,VALID,14,VALID,1.94607,
2004-03-04, 00:34:00,VALID,918.978,VALID,0,VALID,100,VALID,-0.118866,VALID,18.5946,VALID,10,VALID,1.94722,
2004-03-04, 00:35:00,VALID,918.958,VALID,0,VALID,99.999,VALID,-0.101885,VALID,18.5464,VALID,4,VALID,1.95384,
2004-03-04, 00:36:00,VALID,918.946,VALID,0,VALID,100,VALID,-0.101885,VALID,18.5204,VALID,358,VALID,1.30297,
2004-03-04, 00:37:00,VALID,918.945,VALID,0,VALID,100,VALID,-0.101885,VALID,18.5273,VALID,10,VALID,1.53711,
2004-03-04, 00:38:00,VALID,918.92,VALID,0,VALID,100,VALID,-0.118866,VALID,18.5139,VALID,10,VALID,1.68806,
2004-03-04, 00:39:00,VALID,918.921,VALID,0,VALID,100,VALID,-0.118866,VALID,18.498,VALID,13,VALID,1.97638,
2004-03-04, 00:40:00,VALID,918.912,VALID,0,VALID,100,VALID,-0.118866,VALID,18.4756,VALID,360,VALID,1.91521,
2004-03-04, 00:41:00,VALID,918.902,VALID,0,VALID,100,VALID,-0.101885,VALID,18.4625,VALID,351,VALID,1.77809,
2004-03-04, 00:42:00,VALID,918.871,VALID,0,VALID,100,VALID,-0.135847,VALID,18.4694,VALID,350,VALID,1.51598,
2004-03-04, 00:43:00,VALID,918.848,VALID,0,VALID,100,VALID,-0.101885,VALID,18.4692,VALID,12,VALID,1.36436,
2004-03-04, 00:44:00,VALID,918.827,VALID,0,VALID,100,VALID,-0.118866,VALID,18.4853,VALID,23,VALID,1.52172,
2004-03-04, 00:45:00,VALID,918.834,VALID,0,VALID,100,VALID,-0.0339617,VALID,18.5065,VALID,8,VALID,0.844122,
2004-03-04, 00:46:00,VALID,918.812,VALID,0,VALID,100,VALID,0,VALID,18.5323,VALID,11,VALID,0.25625,
2004-03-04, 00:47:00,VALID,918.796,VALID,0,VALID,100,VALID,0,VALID,18.5651,VALID,14,VALID,0.741815,
2004-03-04, 00:48:00,VALID,918.783,VALID,0,VALID,100,VALID,-0.0169808,VALID,18.5549,VALID,357,VALID,0.955729,
2004-03-04, 00:49:00,VALID,918.79,VALID,0,VALID,100,VALID,-0.0509425,VALID,18.5487,VALID,357,VALID,1.6232,
2004-03-04, 00:50:00,VALID,918.774,VALID,0,VALID,100,VALID,0,VALID,18.5033,VALID,12,VALID,2.19093,
2004-03-04, 00:51:00,VALID,918.772,VALID,0,VALID,100,VALID,0,VALID,18.5132,VALID,11,VALID,1.59392,
2004-03-04, 00:52:00,VALID,918.772,VALID,0,VALID,100,VALID,-0.0169808,VALID,18.5169,VALID,356,VALID,1.24592,
2004-03-04, 00:53:00,VALID,918.788,VALID,0,VALID,100,VALID,0,VALID,18.5132,VALID,13,VALID,0.781068,
2004-03-04, 00:54:00,VALID,918.774,VALID,0,VALID,100,VALID,0,VALID,18.5713,VALID,30,VALID,0.626172,
2004-03-04, 00:55:00,VALID,918.736,VALID,0,VALID,100,VALID,-0.0339617,VALID,18.5552,VALID,23,VALID,1.4783,
2004-03-04, 00:56:00,VALID,918.721,VALID,0,VALID,100,VALID,-0.0169808,VALID,18.5492,VALID,12,VALID,1.29516,
2004-03-04, 00:57:00,VALID,918.68,VALID,0,VALID,100,VALID,-0.0509425,VALID,18.5333,VALID,17,VALID,1.69358,
2004-03-04, 00:58:00,VALID,918.673,VALID,0,VALID,100,VALID,-0.0339617,VALID,18.4906,VALID,15,VALID,2.50098,
2004-03-04, 00:59:00,VALID,918.675,VALID,0,VALID,99.9453,VALID,-0.0169808,VALID,18.4848,VALID,350,VALID,1.37881,
2004-03-04, 01:00:00,VALID,918.689,VALID,0,VALID,99.8337,VALID,0.0679233,VALID,18.4671,VALID,328,VALID,0.977604,
2004-03-04, 01:01:00,VALID,918.692,VALID,0,VALID,99.8527,VALID,0.101885,VALID,18.4924,VALID,1,VALID,0.449119,
2004-03-04, 01:02:00,VALID,918.669,VALID,0,VALID,99.8667,VALID,0.0849042,VALID,18.5116,VALID,15,VALID,1.50595,
2004-03-04, 01:03:00,VALID,918.642,VALID,0,VALID,99.8985,VALID,0.0849042,VALID,18.5372,VALID,11,VALID,1.65835,
2004-03-04, 01:04:00,VALID,918.628,VALID,0,VALID,99.7943,VALID,0.0849042,VALID,18.518,VALID,5,VALID,1.56343,
2004-03-04, 01:05:00,VALID,918.642,VALID,0,VALID,99.7536,VALID,0.0849042,VALID,18.5019,VALID,16,VALID,1.19141,
2004-03-04, 01:06:00,VALID,918.632,VALID,0,VALID,99.662,VALID,0.0849042,VALID,18.4892,VALID,337,VALID,0.674419,
2004-03-04, 01:07:00,VALID,918.634,VALID,0,VALID,99.7103,VALID,0.0509425,VALID,18.4959,VALID,335,VALID,0.62936,
2004-03-04, 01:08:00,VALID,918.624,VALID,0,VALID,99.7269,VALID,0.0679233,VALID,18.4865,VALID,353,VALID,0.613917,
2004-03-04, 01:09:00,VALID,918.585,VALID,0,VALID,99.8502,VALID,0.0849042,VALID,18.5058,VALID,16,VALID,0.874256,
2004-03-04, 01:10:00,VALID,918.56,VALID,0,VALID,99.968,VALID,0.0849042,VALID,18.5213,VALID,13,VALID,1.26871,
2004-03-04, 01:11:00,VALID,918.56,VALID,0.2,VALID,99.9046,VALID,0.101885,VALID,18.5054,VALID,14,VALID,1.49619,
2004-03-04, 01:12:00,VALID,918.543,VALID,0,VALID,99.8896,VALID,0.101885,VALID,18.4728,VALID,352,VALID,1.37081,
2004-03-04, 01:13:00,VALID,918.531,VALID,0,VALID,99.8795,VALID,0.0509425,VALID,18.4539,VALID,7,VALID,1.25457,
2004-03-04, 01:14:00,VALID,918.52,VALID,0,VALID,99.8922,VALID,0.0849042,VALID,18.4346,VALID,4,VALID,1.48858,
2004-03-04, 01:15:00,VALID,918.5,VALID,0,VALID,99.8858,VALID,-0.0169808,VALID,18.4258,VALID,9,VALID,1.53385,
2004-03-04, 01:16:00,VALID,918.486,VALID,0,VALID,99.8973,VALID,-0.0169808,VALID,18.4297,VALID,7,VALID,1.32124,
2004-03-04, 01:17:00,VALID,918.487,VALID,0,VALID,99.826,VALID,-0.0169808,VALID,18.4004,VALID,360,VALID,1.72545,
2004-03-04, 01:18:00,VALID,918.476,VALID,0,VALID,99.9023,VALID,0,VALID,18.3965,VALID,16,VALID,1.23552,
2004-03-04, 01:19:00,VALID,918.455,VALID,0,VALID,100,VALID,-0.0169808,VALID,18.4258,VALID,18,VALID,1.58822,
2004-03-04, 01:20:01,VALID,918.453,VALID,0,VALID,100,VALID,0,VALID,18.4588,VALID,13,VALID,0.958333,
2004-03-04, 01:21:00,VALID,918.435,VALID,0,VALID,100,VALID,-0.0339617,VALID,18.4424,VALID,353,VALID,1.13929,
2004-03-04, 01:22:00,VALID,918.416,VALID,0,VALID,100,VALID,0,VALID,18.4332,VALID,8,VALID,1.25986,
2004-03-04, 01:23:00,VALID,918.404,VALID,0,VALID,99.9819,VALID,-0.0169808,VALID,18.3972,VALID,10,VALID,1.17639,
2004-03-04, 01:24:00,VALID,918.387,VALID,0,VALID,100,VALID,0,VALID,18.4168,VALID,19,VALID,0.803385,
2004-03-04, 01:25:00,VALID,918.375,VALID,0,VALID,100,VALID,-0.0169808,VALID,18.432,VALID,28,VALID,0.736003,
2004-03-04, 01:26:00,VALID,918.372,VALID,0,VALID,100,VALID,-0.0169808,VALID,18.4519,VALID,16,VALID,0.569404,
2004-03-04, 01:27:00,VALID,918.363,VALID,0,VALID,100,VALID,-0.0339617,VALID,18.4424,VALID,5,VALID,0.940104,
2004-03-04, 01:28:01,VALID,918.353,VALID,0,VALID,100,VALID,-0.0169808,VALID,18.439,VALID,25,VALID,1.00915,
2004-03-04, 01:29:00,VALID,918.353,VALID,0,VALID,100,VALID,0,VALID,18.4323,VALID,326,VALID,0.724657,
2004-03-04, 01:30:00,VALID,918.346,VALID,0,VALID,100,VALID,-0.0509425,VALID,18.427,VALID,241,VALID,0.297828,
2004-03-04, 01:31:00,VALID,918.323,VALID,0.2,VALID,100,VALID,-0.0849042,VALID,18.4048,VALID,246,VALID,0.244496,
2004-03-04, 01:32:00,VALID,918.314,VALID,0,VALID,100,VALID,-0.0679233,VALID,18.3984,VALID,324,VALID,0.576126,
2004-03-04, 01:33:01,VALID,918.274,VALID,0,VALID,100,VALID,-0.0679233,VALID,18.4337,VALID,26,VALID,1.08947,
2004-03-04, 01:34:00,VALID,918.281,VALID,0,VALID,100,VALID,-0.0849042,VALID,18.4537,VALID,9,VALID,1.02134,
2004-03-04, 01:35:00,VALID,918.278,VALID,0.2,VALID,100,VALID,-0.0679233,VALID,18.4763,VALID,17,VALID,0.409647,
2004-03-04, 01:36:00,VALID,918.269,VALID,0,VALID,100,VALID,-0.0849042,VALID,18.4297,VALID,7,VALID,0.854288,
2004-03-04, 01:37:01,VALID,918.251,VALID,0,VALID,100,VALID,-0.101885,VALID,18.4632,VALID,20,VALID,1.43941,
2004-03-04, 01:38:00,VALID,918.255,VALID,0,VALID,100,VALID,-0.0509425,VALID,18.4826,VALID,19,VALID,1.31907,
2004-03-04, 01:39:01,VALID,918.254,VALID,0,VALID,100,VALID,-0.0679233,VALID,18.4692,VALID,24,VALID,0.994048,
2004-03-04, 01:40:00,VALID,918.257,VALID,0,VALID,100,VALID,-0.0509425,VALID,18.4528,VALID,8,VALID,0.771949,
2004-03-04, 01:41:00,VALID,918.252,VALID,0,VALID,100,VALID,-0.101885,VALID,18.4657,VALID,17,VALID,0.847384,
2004-03-04, 01:42:00,VALID,918.246,VALID,0,VALID,100,VALID,-0.101885,VALID,18.4885,VALID,15,VALID,0.465843,
2004-03-04, 01:43:00,VALID,918.244,VALID,0,VALID,100,VALID,-0.0849042,VALID,18.4883,VALID,11,VALID,1.05832,
2004-03-04, 01:44:00,VALID,918.238,VALID,0.2,VALID,100,VALID,-0.101885,VALID,18.4823,VALID,19,VALID,0.869792,
2004-03-04, 01:45:01,VALID,918.224,VALID,0,VALID,100,VALID,0,VALID,18.4613,VALID,21,VALID,0.799964,
2004-03-04, 01:46:00,VALID,918.197,VALID,0,VALID,100,VALID,0.0169808,VALID,18.4901,VALID,22,VALID,0.239236,
2004-03-04, 01:47:00,VALID,918.159,VALID,0.2,VALID,100,VALID,0.0509425,VALID,18.5095,VALID,20,VALID,0.544331,
2004-03-04, 01:48:00,VALID,918.143,VALID,0,VALID,100,VALID,0.0169808,VALID,18.5031,VALID,15,VALID,0.980015,
2004-03-04, 01:49:00,VALID,918.108,VALID,0,VALID,100,VALID,0.0169808,VALID,18.4777,VALID,6,VALID,0.925604,
2004-03-04, 01:50:00,VALID,918.069,VALID,0,VALID,100,VALID,0.0339617,VALID,18.4613,VALID,25,VALID,0.880664,
2004-03-04, 01:51:01,VALID,918.024,VALID,0,VALID,100,VALID,0.0169808,VALID,18.4675,VALID,24,VALID,0.666424,
2004-03-04, 01:52:00,VALID,917.97,VALID,0,VALID,100,VALID,0,VALID,18.4906,VALID,48,VALID,0.357422,
2004-03-04, 01:53:01,VALID,917.916,VALID,0,VALID,100,VALID,0.0169808,VALID,18.4934,VALID,23,VALID,1.08412,
2004-03-04, 01:54:01,VALID,917.895,VALID,0,VALID,100,VALID,0.0339617,VALID,18.4809,VALID,18,VALID,1.45419,
2004-03-04, 01:55:00,VALID,917.889,VALID,0,VALID,100,VALID,0.0169808,VALID,18.4456,VALID,11,VALID,1.20543,
2004-03-04, 01:56:00,VALID,917.899,VALID,0,VALID,100,VALID,0.0509425,VALID,18.4323,VALID,9,VALID,1.11471,
2004-03-04, 01:57:00,VALID,917.891,VALID,0,VALID,100,VALID,0.0679233,VALID,18.4064,VALID,8,VALID,1.0505,
2004-03-04, 01:58:01,VALID,917.877,VALID,0,VALID,100,VALID,0.0509425,VALID,18.3707,VALID,10,VALID,1.2669,
2004-03-04, 01:59:00,VALID,917.846,VALID,0,VALID,100,VALID,0.0339617,VALID,18.3479,VALID,23,VALID,1.22504,
2004-03-04, 02:00:00,VALID,917.843,VALID,0,VALID,100,VALID,0.0169808,VALID,18.3416,VALID,10,VALID,1.46221,
2004-03-04, 02:01:00,VALID,917.823,VALID,0,VALID,100,VALID,0,VALID,18.3359,VALID,359,VALID,1.98791,
2004-03-04, 02:02:00,VALID,917.784,VALID,0,VALID,100,VALID,0.0169808,VALID,18.2838,VALID,344,VALID,1.95294,
2004-03-04, 02:03:00,VALID,917.753,VALID,0,VALID,100,VALID,0.0169808,VALID,18.2743,VALID,4,VALID,1.82887,
2004-03-04, 02:04:00,VALID,917.717,VALID,0,VALID,100,VALID,0.0509425,VALID,18.2681,VALID,358,VALID,1.99202,
2004-03-04, 02:05:01,VALID,917.686,VALID,0,VALID,100,VALID,0.0339617,VALID,18.2515,VALID,6,VALID,1.37805,
2004-03-04, 02:06:00,VALID,917.657,VALID,0,VALID,100,VALID,0.0679233,VALID,18.2547,VALID,10,VALID,1.20198,
2004-03-04, 02:07:01,VALID,917.645,VALID,0,VALID,100,VALID,0.0679233,VALID,18.2609,VALID,10,VALID,2.10714,
2004-03-04, 02:08:01,VALID,917.621,VALID,0,VALID,100,VALID,0.0679233,VALID,18.2448,VALID,349,VALID,1.27484,
2004-03-04, 02:09:00,VALID,917.619,VALID,0,VALID,100,VALID,0.0509425,VALID,18.2478,VALID,339,VALID,0.478277,
2004-03-04, 02:10:01,VALID,917.604,VALID,0,VALID,100,VALID,0.0509425,VALID,18.254,VALID,360,VALID,0.674851,
2004-03-04, 02:11:00,VALID,917.595,VALID,0,VALID,100,VALID,0.0679233,VALID,18.2997,VALID,22,VALID,1.15439,
2004-03-04, 02:12:00,VALID,917.574,VALID,0,VALID,100,VALID,0,VALID,18.3486,VALID,28,VALID,0.817224,
2004-03-04, 02:13:01,VALID,917.577,VALID,0,VALID,100,VALID,0.0339617,VALID,18.3486,VALID,23,VALID,0.981136,
2004-03-04, 02:14:01,VALID,917.559,VALID,0,VALID,100,VALID,0.0339617,VALID,18.3707,VALID,21,VALID,0.883176,
2004-03-04, 02:15:00,VALID,917.543,VALID,0,VALID,100,VALID,-0.0339617,VALID,18.3871,VALID,15,VALID,1.04148,
2004-03-04, 02:16:00,VALID,917.54,VALID,0,VALID,100,VALID,-0.0679233,VALID,18.4088,VALID,14,VALID,0.591087,
2004-03-04, 02:17:00,VALID,917.536,VALID,0,VALID,100,VALID,-0.0679233,VALID,18.3719,VALID,22,VALID,1.49492,
2004-03-04, 02:18:00,VALID,917.522,VALID,0,VALID,100,VALID,-0.0169808,VALID,18.3654,VALID,22,VALID,1.50896,
2004-03-04, 02:19:00,VALID,917.512,VALID,0,VALID,100,VALID,-0.0849042,VALID,18.3922,VALID,19,VALID,0.802083,
2004-03-04, 02:20:00,VALID,917.494,VALID,0,VALID,100,VALID,-0.0849042,VALID,18.3912,VALID,17,VALID,0.413352,
2004-03-04, 02:21:01,VALID,917.472,VALID,0,VALID,100,VALID,-0.0339617,VALID,18.4141,VALID,11,VALID,0.766493,
2004-03-04, 02:22:00,VALID,917.459,VALID,0,VALID,100,VALID,-0.0849042,VALID,18.3624,VALID,1,VALID,1.30131,
2004-03-04, 02:23:00,VALID,917.438,VALID,0,VALID,100,VALID,-0.0679233,VALID,18.3594,VALID,14,VALID,0.729048,
2004-03-04, 02:24:00,VALID,917.434,VALID,0,VALID,100,VALID,-0.0509425,VALID,18.3493,VALID,339,VALID,0.584121,
2004-03-04, 02:25:01,VALID,917.419,VALID,0,VALID,100,VALID,-0.0509425,VALID,18.3363,VALID,14,VALID,0.545201,
2004-03-04, 02:26:00,VALID,917.391,VALID,0,VALID,100,VALID,-0.0169808,VALID,18.3297,VALID,20,VALID,1.34266,
2004-03-04, 02:27:00,VALID,917.366,VALID,0,VALID,100,VALID,-0.0679233,VALID,18.3559,VALID,19,VALID,1.28601,
2004-03-04, 02:28:00,VALID,917.358,VALID,0,VALID,100,VALID,-0.0679233,VALID,18.3815,VALID,16,VALID,1.09197,
2004-03-04, 02:29:00,VALID,917.356,VALID,0,VALID,100,VALID,-0.0679233,VALID,18.3951,VALID,5,VALID,1.15134,
2004-03-04, 02:30:00,VALID,917.313,VALID,0,VALID,100,VALID,-0.0849042,VALID,18.376,VALID,14,VALID,1.98456,
2004-03-04, 02:31:00,VALID,917.315,VALID,0,VALID,100,VALID,-0.0849042,VALID,18.3566,VALID,14,VALID,1.55961,
2004-03-04, 02:32:00,VALID,917.3,VALID,0,VALID,100,VALID,-0.101885,VALID,18.3336,VALID,11,VALID,2.0197,
2004-03-04, 02:33:00,VALID,917.289,VALID,0,VALID,100,VALID,-0.0509425,VALID,18.3144,VALID,312,VALID,0.717842,
2004-03-04, 02:34:01,VALID,917.277,VALID,0,VALID,100,VALID,-0.0849042,VALID,18.2916,VALID,350,VALID,1.23552,
2004-03-04, 02:35:00,VALID,917.258,VALID,0,VALID,100,VALID,-0.0849042,VALID,18.2822,VALID,13,VALID,1.27162,
2004-03-04, 02:36:00,VALID,917.247,VALID,0,VALID,100,VALID,-0.0849042,VALID,18.2626,VALID,15,VALID,1.32893,
2004-03-04, 02:37:00,VALID,917.233,VALID,0,VALID,100,VALID,-0.0679233,VALID,18.2852,VALID,25,VALID,1.46708,
2004-03-04, 02:38:00,VALID,917.198,VALID,0,VALID,100,VALID,-0.101885,VALID,18.3276,VALID,28,VALID,1.46366,
2004-03-04, 02:39:00,VALID,917.187,VALID,0,VALID,100,VALID,-0.101885,VALID,18.3472,VALID,14,VALID,1.46875,
2004-03-04, 02:40:00,VALID,917.171,VALID,0,VALID,100,VALID,-0.101885,VALID,18.3244,VALID,11,VALID,1.72196,
2004-03-04, 02:41:00,VALID,917.133,VALID,0,VALID,100,VALID,-0.0849042,VALID,18.2981,VALID,19,VALID,1.62109,
2004-03-04, 02:42:00,VALID,917.105,VALID,0,VALID,100,VALID,-0.0849042,VALID,18.2881,VALID,21,VALID,1.27496,
2004-03-04, 02:43:00,VALID,917.076,VALID,0,VALID,100,VALID,-0.101885,VALID,18.2951,VALID,10,VALID,1.34961,
2004-03-04, 02:44:00,VALID,917.074,VALID,0,VALID,100,VALID,-0.0849042,VALID,18.2921,VALID,26,VALID,1.36775,
2004-03-04, 02:45:01,VALID,917.062,VALID,0,VALID,100,VALID,0,VALID,18.2875,VALID,25,VALID,1.13009,
2004-03-04, 02:46:00,VALID,917.039,VALID,0,VALID,100,VALID,0.0509425,VALID,18.2902,VALID,23,VALID,1.3839,
2004-03-04, 02:47:00,VALID,917.04,VALID,0,VALID,100,VALID,0,VALID,18.2805,VALID,17,VALID,1.5967,
2004-03-04, 02:48:00,VALID,917.034,VALID,0,VALID,100,VALID,0.0339617,VALID,18.2545,VALID,354,VALID,1.02422,
2004-03-04, 02:49:00,VALID,917.021,VALID,0,VALID,100,VALID,0.0169808,VALID,18.2294,VALID,22,VALID,1.66776,
2004-03-04, 02:50:00,VALID,917.013,VALID,0,VALID,100,VALID,0,VALID,18.2227,VALID,16,VALID,1.53733,
2004-03-04, 02:51:00,VALID,917.004,VALID,0,VALID,100,VALID,0,VALID,18.2038,VALID,17,VALID,1.66425,
2004-03-04, 02:52:00,VALID,916.982,VALID,0,VALID,100,VALID,0,VALID,18.1745,VALID,11,VALID,1.93064,
2004-03-04, 02:53:00,VALID,916.975,VALID,0,VALID,100,VALID,0,VALID,18.1712,VALID,349,VALID,1.45332,
2004-03-04, 02:54:01,VALID,916.963,VALID,0,VALID,100,VALID,0.0169808,VALID,18.1484,VALID,6,VALID,1.60614,
2004-03-04, 02:55:00,VALID,916.944,VALID,0,VALID,100,VALID,0.0169808,VALID,18.1583,VALID,18,VALID,1.91997,
2004-03-04, 02:56:01,VALID,916.919,VALID,0,VALID,100,VALID,0,VALID,18.1452,VALID,21,VALID,2.18889,
2004-03-04, 02:57:00,VALID,916.905,VALID,0,VALID,100,VALID,0.0339617,VALID,18.1256,VALID,15,VALID,1.98347,
2004-03-04, 02:58:00,VALID,916.907,VALID,0,VALID,100,VALID,0,VALID,18.1263,VALID,4,VALID,1.48984,
2004-03-04, 02:59:01,VALID,916.881,VALID,0,VALID,100,VALID,0,VALID,18.1099,VALID,5,VALID,2.08376,
2004-03-04, 03:00:01,VALID,916.884,VALID,0,VALID,100,VALID,-0.0679233,VALID,18.0938,VALID,2,VALID,1.13114,
2004-03-04, 03:01:00,VALID,916.872,VALID,0,VALID,100,VALID,-0.101885,VALID,18.1048,VALID,347,VALID,0.850521,
2004-03-04, 03:02:00,VALID,916.855,VALID,0,VALID,100,VALID,-0.101885,VALID,18.0984,VALID,10,VALID,1.15752,
2004-03-04, 03:03:00,VALID,916.823,VALID,0,VALID,100,VALID,-0.101885,VALID,18.1078,VALID,344,VALID,0.90843,
2004-03-04, 03:04:01,VALID,916.796,VALID,0,VALID,100,VALID,-0.0849042,VALID,18.0951,VALID,297,VALID,0.6,
2004-03-04, 03:05:01,VALID,916.757,VALID,0,VALID,100,VALID,-0.101885,VALID,18.105,VALID,346,VALID,0.506392,
2004-03-04, 03:06:00,VALID,916.722,VALID,0,VALID,100,VALID,-0.101885,VALID,18.1048,VALID,16,VALID,1.04277,
2004-03-04, 03:07:00,VALID,916.676,VALID,0,VALID,100,VALID,-0.101885,VALID,18.1145,VALID,16,VALID,1.10728,
2004-03-04, 03:08:01,VALID,916.647,VALID,0,VALID,100,VALID,-0.101885,VALID,18.1014,VALID,8,VALID,0.474077,
2004-03-04, 03:09:00,VALID,916.612,VALID,0,VALID,100,VALID,-0.101885,VALID,18.1085,VALID,18,VALID,0.34375,
2004-03-04, 03:10:00,VALID,916.585,VALID,0,VALID,100,VALID,-0.101885,VALID,18.1014,VALID,18,VALID,0.316319,
2004-03-04, 03:11:01,VALID,916.572,VALID,0,VALID,100,VALID,-0.101885,VALID,18.1113,VALID,18,VALID,0.565358,
2004-03-04, 03:12:01,VALID,916.552,VALID,0,VALID,100,VALID,-0.101885,VALID,18.1078,VALID,13,VALID,0.855564,
2004-03-04, 03:13:01,VALID,916.521,VALID,0,VALID,100,VALID,-0.101885,VALID,18.1117,VALID,13,VALID,0.722384,
2004-03-04, 03:14:00,VALID,916.525,VALID,0,VALID,100,VALID,-0.0849042,VALID,18.0988,VALID,18,VALID,0.950076,
2004-03-04, 03:15:01,VALID,916.522,VALID,0,VALID,100,VALID,-0.101885,VALID,18.0663,VALID,14,VALID,1.02121,
2004-03-04, 03:16:01,VALID,916.514,VALID,0,VALID,100,VALID,-0.101885,VALID,18.0499,VALID,12,VALID,0.956143,
2004-03-04, 03:17:01,VALID,916.498,VALID,0,VALID,100,VALID,-0.0849042,VALID,18.0403,VALID,20,VALID,1.10004,
2004-03-04, 03:18:01,VALID,916.481,VALID,0,VALID,100,VALID,-0.101885,VALID,18.0629,VALID,16,VALID,1.20723,
2004-03-04, 03:19:01,VALID,916.464,VALID,0,VALID,100,VALID,-0.0849042,VALID,18.0405,VALID,10,VALID,1.25036,
2004-03-04, 03:20:01,VALID,916.453,VALID,0,VALID,100,VALID,-0.0679233,VALID,18.0084,VALID,1,VALID,0.704241,
2004-03-04, 03:21:01,VALID,916.426,VALID,0,VALID,100,VALID,-0.101885,VALID,17.9789,VALID,353,VALID,0.795201,
2004-03-04, 03:22:01,VALID,916.399,VALID,0,VALID,100,VALID,-0.0849042,VALID,17.966,VALID,1,VALID,1.15207,
2004-03-04, 03:23:01,VALID,916.368,VALID,0,VALID,100,VALID,-0.101885,VALID,17.9469,VALID,6,VALID,1.07589,
2004-03-04, 03:24:01,VALID,916.349,VALID,0,VALID,100,VALID,-0.0849042,VALID,17.9303,VALID,342,VALID,0.913213,
2004-03-04, 03:25:00,VALID,916.342,VALID,0,VALID,100,VALID,-0.101885,VALID,17.9342,VALID,329,VALID,0.588481,
2004-03-04, 03:26:01,VALID,916.324,VALID,0,VALID,100,VALID,-0.101885,VALID,17.9697,VALID,10,VALID,0.645898,
2004-03-04, 03:27:01,VALID,916.317,VALID,0,VALID,100,VALID,-0.0849042,VALID,17.9759,VALID,3,VALID,0.945499,
2004-03-04, 03:28:01,VALID,916.306,VALID,0,VALID,100,VALID,-0.101885,VALID,17.9768,VALID,359,VALID,0.956424,
2004-03-04, 03:29:01,VALID,916.298,VALID,0,VALID,100,VALID,-0.101885,VALID,17.9436,VALID,354,VALID,0.914608,
2004-03-04, 03:30:01,VALID,916.281,VALID,0,VALID,100,VALID,-0.0679233,VALID,17.9598,VALID,4,VALID,1.09184,
2004-03-04, 03:31:01,VALID,916.29,VALID,0,VALID,100,VALID,-0.0849042,VALID,17.9533,VALID,8,VALID,1.22493,
2004-03-04, 03:32:01,VALID,916.294,VALID,0,VALID,100,VALID,-0.0679233,VALID,17.9766,VALID,9,VALID,0.731831,
2004-03-04, 03:33:01,VALID,916.29,VALID,0,VALID,100,VALID,-0.0679233,VALID,17.9662,VALID,352,VALID,0.465745,
2004-03-04, 03:34:01,VALID,916.28,VALID,0,VALID,100,VALID,-0.0339617,VALID,17.9662,VALID,343,VALID,0.321615,
2004-03-04, 03:35:01,VALID,916.26,VALID,0,VALID,100,VALID,-0.0849042,VALID,17.9526,VALID,346,VALID,0.159784,
2004-03-04, 03:36:01,VALID,916.243,VALID,0,VALID,100,VALID,-0.0679233,VALID,17.9598,VALID,360,VALID,0.681141,
2004-03-04, 03:37:01,VALID,916.232,VALID,0,VALID,100,VALID,-0.0679233,VALID,17.9535,VALID,14,VALID,1.11068,
2004-03-04, 03:38:00,VALID,916.227,VALID,0,VALID,100,VALID,-0.0509425,VALID,17.9503,VALID,354,VALID,0.627725,
2004-03-04, 03:39:01,VALID,916.217,VALID,0,VALID,100,VALID,-0.101885,VALID,17.9462,VALID,2,VALID,0.393169,
2004-03-04, 03:40:01,VALID,916.208,VALID,0,VALID,100,VALID,-0.0169808,VALID,17.9667,VALID,328,VALID,0.615007,